TimeEST,TemperatureF,Dew PointF,Humidity,Sea Level PressureIn,VisibilityMPH,Wind Direction,Wind SpeedMPH,Gust SpeedMPH,PrecipitationIn,Events,Conditions,WindDirDegrees,DateUTC
12:51 AM,63.0,62.1,97,30.16,10.0,WSW,6.9,-,N/A,,Clear,240,2013-01-14 05:51:00
1:51 AM,64.0,62.1,93,30.16,10.0,WSW,6.9,-,N/A,,Clear,240,2013-01-14 06:51:00
2:51 AM,63.0,62.1,97,30.17,10.0,WSW,8.1,-,N/A,,Scattered Clouds,240,2013-01-14 07:51:00
3:51 AM,60.1,59.0,96,30.14,7.0,WSW,4.6,-,N/A,,Clear,240,2013-01-14 08:51:00
4:51 AM,63.0,61.0,93,30.14,9.0,WSW,8.1,-,N/A,,Clear,240,2013-01-14 09:51:00
5:51 AM,63.0,61.0,93,30.14,10.0,WSW,8.1,-,N/A,,Clear,240,2013-01-14 10:51:00
6:51 AM,63.0,60.1,90,30.16,10.0,WSW,6.9,-,N/A,,Clear,250,2013-01-14 11:51:00
7:51 AM,60.1,59.0,96,30.19,8.0,WNW,5.8,-,N/A,,Clear,300,2013-01-14 12:51:00
8:51 AM,64.0,61.0,90,30.21,10.0,WSW,5.8,-,N/A,,Clear,250,2013-01-14 13:51:00
9:51 AM,64.0,60.1,87,30.21,10.0,WSW,8.1,-,N/A,,Clear,240,2013-01-14 14:51:00
10:51 AM,66.0,60.1,81,30.20,10.0,WSW,10.4,-,N/A,,Clear,240,2013-01-14 15:51:00
11:51 AM,69.1,62.1,78,30.17,10.0,WSW,9.2,-,N/A,,Clear,250,2013-01-14 16:51:00
12:51 PM,71.1,62.1,73,30.15,10.0,WSW,6.9,-,N/A,,Clear,240,2013-01-14 17:51:00
1:51 PM,66.9,61.0,81,30.15,10.0,SSW,3.5,-,N/A,,Clear,210,2013-01-14 18:51:00
2:51 PM,66.0,61.0,84,30.16,10.0,SW,4.6,-,N/A,,Clear,220,2013-01-14 19:51:00
3:51 PM,66.0,61.0,84,30.17,10.0,SW,3.5,-,N/A,,Clear,220,2013-01-14 20:51:00
5:51 PM,64.0,61.0,90,30.19,10.0,SSW,9.2,-,N/A,,Overcast,210,2013-01-14 22:51:00
6:51 PM,62.1,59.0,90,30.19,10.0,SSW,4.6,-,N/A,,Overcast,210,2013-01-14 23:51:00
7:51 PM,62.1,59.0,90,30.19,10.0,SW,4.6,-,N/A,,Overcast,220,2013-01-15 00:51:00
8:51 PM,61.0,59.0,93,30.17,10.0,SW,5.8,-,N/A,,Mostly Cloudy,230,2013-01-15 01:51:00
9:51 PM,61.0,60.1,97,30.17,10.0,SW,6.9,-,N/A,,Clear,230,2013-01-15 02:51:00
10:51 PM,61.0,59.0,93,30.17,10.0,SW,5.8,-,N/A,,Clear,230,2013-01-15 03:51:00
11:51 PM,64.0,62.1,93,30.17,10.0,WSW,10.4,-,N/A,,Partly Cloudy,240,2013-01-15 04:51:00